FW6591 Weather Reports


Display with metric or nautical units.
time (UTC)temp
F
wind
direction
speed
MPH
gust
MPH
rain 1hr
in
rain 24hr
in
rain mn
in
humidity
%
barometer
mb
20260510063043 62 211 6.0 10.0 0.00 0.00 0.00 37 1005.9
20260510061552 62 305 9.0 17.0 0.00 0.00 0.00 35 1005.6
20260510060048 61 17 4.0 11.0 0.00 0.00 0.00 36 1005.2
20260510054549 57 281 4.0 12.0 0.00 0.00 0.00 39 1005.0
20260510053058 54 0 0.0 2.0 0.00 0.00 0.00 47 1005.2
20260510051548 55 0 0.0 3.0 0.00 0.00 0.00 45 1005.0
20260510050047 54 21 3.0 8.0 0.00 0.00 0.00 46 1004.7
20260510044551 54 9 1.0 3.0 0.00 0.00 0.00 50 1004.9
20260510043050 55 57 2.0 4.0 0.00 0.00 0.00 49 1004.9
20260510041547 55 13 0.0 2.0 0.00 0.00 0.00 49 1004.9
20260510040042 55 0 0.0 2.0 0.00 0.00 0.00 50 1005.0
20260510034544 57 0 1.0 3.0 0.00 0.00 0.00 49 1005.0
20260510033048 57 32 2.0 4.0 0.00 0.00 0.00 48 1004.9
20260510031546 58 327 3.0 7.0 0.00 0.00 0.00 48 1005.1
20260510030049 60 17 2.0 8.0 0.00 0.00 0.00 48 1005.3
20260510024541 60 12 2.0 6.0 0.00 0.00 0.00 47 1005.3
20260510023043 64 315 6.0 16.0 0.00 0.00 0.00 42 1005.3
20260510021547 64 292 7.0 17.0 0.00 0.00 0.00 41 1005.4
20260510020036 63 315 7.0 15.0 0.00 0.00 0.00 44 1005.5
20260510014547 63 9 4.0 11.0 0.00 0.00 0.00 45 1005.7
20260510013049 62 313 2.0 5.0 0.00 0.00 0.00 46 1005.9
20260510011550 62 9 4.0 8.0 0.00 0.00 0.00 47 1006.0
20260510010044 59 9 3.0 4.0 0.00 0.00 0.00 54 1006.1
20260510004551 58 43 1.0 4.0 0.00 0.00 0.00 58 1006.2
20260510003045 54 309 1.0 3.0 0.00 0.00 0.00 64 1006.4
20260510001544 54 9 1.0 2.0 0.00 0.00 0.00 63 1006.9
20260510000059 54 11 2.0 4.0 0.00 0.00 0.00 63 1007.2
20260509234548 54 304 3.0 5.0 0.00 0.00 0.00 61 1007.5
20260509233047 53 281 1.0 4.0 0.00 0.00 0.00 63 1007.7
20260509231545 52 36 2.0 4.0 0.00 0.00 0.00 65 1008.0
20260509230054 50 9 2.0 5.0 0.00 0.00 0.00 69 1008.6
20260509224547 51 303 2.0 4.0 0.00 0.00 0.00 69 1008.7
20260509223043 50 292 3.0 5.0 0.00 0.00 0.00 69 1009.0
20260509221550 51 314 1.0 3.0 0.00 0.00 0.00 68 1009.3
20260509220038 53 0 0.0 3.0 0.00 0.00 0.00 63 1009.7
20260509214559 53 350 1.0 2.0 0.00 0.00 0.00 60 1010.1
20260509213049 55 31 0.0 2.0 0.00 0.00 0.00 56 1010.4
20260509211545 57 11 1.0 3.0 0.00 0.00 0.00 53 1011.0
20260509210045 60 331 1.0 8.0 0.00 0.00 0.00 48 1011.1
20260509204543 61 46 3.0 10.0 0.00 0.00 0.00 43 1011.4
20260509203059 61 41 5.0 10.0 0.00 0.00 0.00 43 1011.6
20260509201548 61 38 6.0 13.0 0.00 0.00 0.00 44 1011.9
20260509200049 60 31 2.0 9.0 0.00 0.00 0.00 48 1012.0
20260509194548 59 41 4.0 6.0 0.00 0.00 0.00 48 1012.4
20260509193046 57 57 2.0 6.0 0.00 0.00 0.00 53 1012.7
20260509191554 54 344 1.0 5.0 0.00 0.00 0.00 58 1012.9
20260509190041 54 0 0.0 2.0 0.00 0.00 0.00 60 1012.9
20260509184557 55 0 0.0 2.0 0.00 0.00 0.00 57 1013.2
20260509183056 55 0 0.0 2.0 0.00 0.00 0.00 58 1013.4
20260509181545 56 0 0.0 2.0 0.00 0.00 0.00 55 1013.6
20260509180044 57 0 0.0 2.0 0.00 0.00 0.00 55 1013.8
20260509174548 57 0 0.0 2.0 0.00 0.00 0.00 53 1013.8
20260509173051 58 0 0.0 2.0 0.00 0.00 0.00 51 1014.0
20260509171544 59 0 1.0 4.0 0.00 0.00 0.00 50 1014.0
20260509170044 59 19 2.0 5.0 0.00 0.00 0.00 50 1013.7
20260509164544 59 16 1.0 5.0 0.00 0.00 0.00 50 1013.7
20260509163042 61 16 1.0 5.0 0.00 0.00 0.00 46 1013.7
20260509161545 62 348 1.0 8.0 0.00 0.00 0.00 44 1013.7
20260509160048 63 307 2.0 8.0 0.00 0.00 0.00 42 1013.8
20260509154544 63 9 1.0 8.0 0.00 0.00 0.00 42 1013.7
20260509153054 65 13 2.0 4.0 0.00 0.00 0.00 40 1013.7
20260509151544 67 332 2.0 8.0 0.00 0.00 0.00 38 1013.7
20260509150042 68 352 2.0 11.0 0.00 0.00 0.00 38 1013.5
20260509144540 69 316 5.0 11.0 0.00 0.00 0.00 34 1013.3
20260509143035 70 315 6.0 14.0 0.00 0.00 0.00 33 1013.4
20260509141544 70 319 9.0 17.0 0.00 0.00 0.00 31 1013.3
20260509140044 70 22 12.0 15.0 0.00 0.00 0.00 32 1013.2
20260509134542 71 320 10.0 17.0 0.00 0.00 0.00 31 1013.3
20260509133046 71 329 10.0 15.0 0.00 0.00 0.00 33 1013.2
20260509131549 71 319 8.0 18.0 0.00 0.00 0.00 33 1013.3
20260509130058 70 352 13.0 18.0 0.00 0.00 0.00 33 1013.4
20260509124550 70 352 14.0 25.0 0.00 0.00 0.00 33 1013.3
20260509123043 70 281 14.0 21.0 0.00 0.00 0.00 33 1013.5
20260509121547 70 313 12.0 20.0 0.00 0.00 0.00 33 1013.6
20260509120038 70 313 13.0 24.0 0.00 0.00 0.00 33 1013.9
20260509114552 70 329 14.0 23.0 0.00 0.00 0.00 31 1014.0
20260509113054 70 314 12.0 22.0 0.00 0.00 0.00 33 1014.2
20260509111542 70 360 10.0 16.0 0.00 0.00 0.00 34 1014.3
20260509110040 69 315 11.0 17.0 0.00 0.00 0.00 34 1014.6
20260509104547 69 352 7.0 20.0 0.00 0.00 0.00 37 1015.1
20260509103058 68 352 8.0 18.0 0.00 0.00 0.00 39 1015.4
20260509101559 69 306 7.0 18.0 0.00 0.00 0.00 37 1015.8
20260509100044 68 323 6.0 18.0 0.00 0.00 0.00 37 1016.0
20260509094556 67 351 10.0 20.0 0.00 0.00 0.00 37 1016.3
20260509093049 66 360 11.0 19.0 0.00 0.00 0.00 38 1016.6
20260509091544 66 325 9.0 20.0 0.00 0.00 0.00 40 1016.9
20260509090052 65 316 9.0 19.0 0.00 0.00 0.00 41 1017.3
20260509084546 65 309 9.0 18.0 0.00 0.00 0.00 41 1017.8
20260509083053 64 30 7.0 15.0 0.00 0.00 0.00 44 1017.9
20260509081535 63 9 5.0 11.0 0.00 0.00 0.00 46 1018.2
20260509080048 63 38 2.0 12.0 0.00 0.00 0.00 49 1018.3
20260509074546 62 44 3.0 10.0 0.00 0.00 0.00 48 1018.6
20260509073040 62 28 5.0 9.0 0.00 0.00 0.00 50 1018.6
20260509071548 62 329 2.0 5.0 0.00 0.00 0.00 51 1018.9
20260509070042 59 0 0.0 4.0 0.00 0.00 0.00 56 1018.9
20260509064542 57 29 1.0 2.0 0.00 0.00 0.00 63 1019.0